• Join FlightAware (Why Join?)
  • Login
  • US Flag 
06:55AM EDT


 

Airport Tracker/Info


-or-


 

Live Flight TrackerFlight Track Log ✈ N873PC ✈ 17-Jan-2014 ✈ KMZJ - KSDL

Flight Track Log - Related Links

Times and Time Zones

All times are in EST time to prevent confusion due to time zone crossing. See the N873PC flight status page for this flight to view local times or setup timezone preferences in your user account.

Time Position Orientation Groundspeed Altitude Reporting Facility
EST Latitude Longitude Course Direction KTS MPH feet Rate Location/Type
12:27PM 32.5653 -111.3631 344° North 187 215 5,400  Level Albuquerque Center
12:27PM 32.5717 -111.3653 344° North 185 213 5,600 1,320 Climbing Albuquerque Center
12:28PM 32.5997 -111.4153 304° West 182 209 6,900 1,140 Climbing Albuquerque Center
12:29PM 32.6283 -111.4653 304° West 182 209 8,000 900 Climbing Albuquerque Center
12:30PM 32.6728 -111.4811 343° North 191 220 8,800 420 Climbing Albuquerque Center
12:31PM 32.7294 -111.4661 13° North 203 234 8,900  Climbing Albuquerque Center
12:32PM 32.7858 -111.4539 10° North 211 243 8,900  Level Albuquerque Center
12:33PM 32.8572 -111.4353 12° North 218 251 8,900  Level Albuquerque Center
12:34PM 32.9172 -111.4203 12° North 220 253 8,900  Level Albuquerque Center
12:36PM 32.9775 -111.4050 12° North 221 254 8,900 -120 Level Albuquerque Center
12:37PM 33.0328 -111.4275 341° North 222 255 8,700 -360 Descending Albuquerque Center
12:38PM 33.0639 -111.4925 300° West 224 258 8,200 -540 Descending Albuquerque Center
12:39PM 33.0933 -111.5575 298° West 223 257 7,700 -540 Descending Albuquerque Center
12:40PM 33.1281 -111.6339 299° West 218 251 7,200 -600 Descending Albuquerque Center
12:41PM 33.1578 -111.6994 298° West 223 257 6,500 -600 Descending Albuquerque Center
12:42PM 33.1881 -111.7658 299° West 228 262 6,000 -300 Descending Albuquerque Center
12:43PM 33.2169 -111.8300 298° West 222 255 5,900 -420 Descending Albuquerque Center
12:44PM 33.2481 -111.8961 299° West 225 259 5,200 -480 Descending Albuquerque Center
12:45PM 33.2789 -111.9653 298° West 233 268 5,000 -120 Descending Albuquerque Center
12:46PM 33.3233 -112.0328 308° West 220 253 5,000  Level Albuquerque Center
12:47PM 33.3797 -112.0394 354° North 204 235 5,000  Level Albuquerque Center
12:48PM 33.4328 -112.0203 17° North 199 229 5,000  Level Albuquerque Center
12:49PM 33.4861 -112.0011 17° North 199 229 5,000 -300 Level Albuquerque Center
12:50PM 33.5336 -111.9733 26° Northeast 192 221 4,500 -780 Descending Albuquerque Center
12:51PM 33.5728 -111.9356 39° Northeast 182 209 3,500 -1,020 Descending Albuquerque Center
12:52PM 33.6153 -111.8875 43° Northeast 178 205 2,500 -780 Descending Albuquerque Center
12:53PM 33.6403 -111.8842 North 145 167 2,000 -540 Descending Albuquerque Center
12:54PM 33.6208 -111.9097 228° Southwest 116 133 1,500 -540 Descending Albuquerque Center